Ann Arbor, MI

8:54 AM EST on December 09, 2016 (GMT -0500)
Ann Arbor Municipal

Weather History for KARB - August, 2014

Change the Weather History Date:

Saturday, August 16, 2014

  Actual Average Record
Temperature  
Mean Temperature 64 °F -  
Max Temperature 82 °F 76 °F 87 °F (2003)
Min Temperature 45 °F 53 °F 44 °F (2004)
Degree Days  
Heating Degree Days 2    
Growing Degree Days 14 (Base 50)    
Moisture  
Dew Point 50 °F    
Average Humidity 79    
Maximum Humidity 96    
Minimum Humidity 40    
Precipitation  
Precipitation 0.00 in - - ()
Sea Level Pressure  
Sea Level Pressure 29.94 in    
Wind  
Wind Speed 4 mph (WSW)    
Max Wind Speed 17 mph    
Max Gust Speed 25 mph    
Visibility 6 miles    
Events Rain    
Averages and records for this station are not official NWS values.
T = Trace of Precipitation, MM = Missing Value Source: NWS Daily Summary

Daily Weather History Graph

Daily Weather History Graph

Search for Another Location

Airport or City:

Trip Planner

Search our weather history database for the weather conditions in past years. The results will help you decide how hot, cold, wet, or windy it might be!

Date:

Astronomy

Aug. 16, 2014 Rise Set
Actual Time 6:43 AM EDT 8:34 PM EDT
Civil Twilight 6:13 AM EDT 9:04 PM EDT
Nautical Twilight 5:36 AM EDT 9:40 PM EDT
Astronomical Twilight 4:56 AM EDT 10:20 PM EDT
Moon No Moon Rise 1:36 PM EDT (8/16)
Length of Visible Light 14h 50m
Length of Day
13h 50m
Waning Gibbous, 59% of the Moon is Illuminated
Aug 16
Waning Gibbous
Aug 17
Last Quarter
Aug 25
New
Sep 2
First Quarter
Sep 8
Full

Hourly Weather History & Observations

Time (EDT) Temp. Windchill Dew Point Humidity Pressure Visibility Wind Dir Wind Speed Gust Speed Precip Events Conditions
12:20 AM 48.9 °F - 46.0 °F 90% 29.99 in 2.5 mi WSW 4.6 mph - N/A   Clear
12:29 AM 50.0 °F - 48.0 °F 93% 29.99 in 10.0 mi Calm Calm - N/A   Clear
1:33 AM 50.0 °F - 46.0 °F 86% 29.98 in 2.5 mi West 4.6 mph - N/A   Clear
1:42 AM 48.9 °F - 46.9 °F 93% 29.97 in 4.0 mi West 4.6 mph - N/A   Clear
1:53 AM 46.9 °F - 44.1 °F 90% 29.98 in 9.0 mi Calm Calm - N/A   Clear
2:18 AM 48.9 °F - 46.9 °F 93% 29.98 in 1.5 mi WSW 3.5 mph - N/A   Clear
2:25 AM 48.0 °F - 46.0 °F 93% 29.98 in 1.0 mi West 3.5 mph - N/A   Mist
2:28 AM 48.0 °F - 46.0 °F 93% 29.97 in 2.0 mi West 3.5 mph - N/A   Partly Cloudy
2:35 AM 46.9 °F - 45.0 °F 93% 29.98 in 10.0 mi West 3.5 mph - N/A   Clear
2:43 AM 48.0 °F - 45.0 °F 89% 29.97 in 1.8 mi WSW 3.5 mph - N/A   Clear
2:48 AM 46.4 °F 45.2 °F 44.6 °F 93% 29.97 in 0.8 mi WSW 3.5 mph - N/A   Clear
2:53 AM 46.0 °F 44.8 °F 43.0 °F 89% 29.97 in 0.8 mi WSW 3.5 mph - N/A   Clear
3:01 AM 46.0 °F 44.8 °F 44.1 °F 93% 29.97 in 1.5 mi SW 3.5 mph - N/A   Clear
3:15 AM 46.0 °F - 43.0 °F 89% 29.96 in 1.8 mi Calm Calm - N/A   Clear
3:23 AM 48.0 °F - 45.0 °F 89% 29.96 in 1.0 mi West 4.6 mph - N/A   Clear
3:29 AM 46.0 °F 43.9 °F 45.0 °F 96% 29.96 in 2.0 mi WSW 4.6 mph - N/A   Clear
3:37 AM 46.0 °F 43.9 °F 44.1 °F 93% 29.96 in 7.0 mi WSW 4.6 mph - N/A   Clear
3:53 AM 46.9 °F - 45.0 °F 93% 29.95 in 6.0 mi WSW 3.5 mph - N/A   Clear
4:06 AM 45.0 °F - 43.0 °F 93% 29.95 in 2.5 mi Calm Calm - N/A   Clear
4:16 AM 46.9 °F - 44.1 °F 90% 29.94 in 4.0 mi Calm Calm - N/A   Clear
4:53 AM 46.0 °F 44.8 °F 44.1 °F 93% 29.95 in 7.0 mi WSW 3.5 mph - N/A   Clear
5:08 AM 46.0 °F - 44.1 °F 93% 29.95 in 1.5 mi Calm Calm - N/A   Clear
5:15 AM 46.9 °F - 44.1 °F 90% 29.95 in 1.0 mi Calm Calm - N/A   Clear
5:19 AM 46.9 °F - 44.1 °F 90% 29.95 in 3.0 mi Calm Calm - N/A   Clear
5:53 AM 48.9 °F - 46.0 °F 90% 29.95 in 10.0 mi Calm Calm - N/A   Clear
6:39 AM 45.0 °F - 43.0 °F 93% 29.96 in 1.8 mi Calm Calm - N/A   Clear
6:46 AM 46.0 °F - 43.0 °F 89% 29.95 in 2.0 mi Calm Calm - N/A   Clear
6:53 AM 48.0 °F - 44.1 °F 86% 29.95 in 5.0 mi Calm Calm - N/A   Clear
7:53 AM 51.1 °F - 48.0 °F 89% 29.96 in 10.0 mi WSW 4.6 mph - N/A   Clear
8:53 AM 59.0 °F - 50.0 °F 72% 29.95 in 10.0 mi WSW 6.9 mph - N/A   Mostly Cloudy
9:53 AM 66.0 °F - 51.1 °F 59% 29.94 in 10.0 mi WSW 8.1 mph - N/A   Clear
10:53 AM 73.0 °F - 52.0 °F 48% 29.94 in 10.0 mi WSW 12.7 mph - N/A   Clear
11:53 AM 77.0 °F - 53.1 °F 43% 29.93 in 10.0 mi WSW 10.4 mph - N/A   Clear
12:53 PM 79.0 °F - 53.1 °F 40% 29.92 in 10.0 mi SW 17.3 mph 20.7 mph N/A   Clear
1:53 PM 80.1 °F - 54.0 °F 40% 29.90 in 10.0 mi SW 12.7 mph - N/A   Clear
2:53 PM 80.1 °F - 54.0 °F 40% 29.89 in 10.0 mi West 13.8 mph - N/A   Scattered Clouds
3:53 PM 82.0 °F - 57.9 °F 44% 29.88 in 10.0 mi WSW 16.1 mph 25.3 mph N/A   Partly Cloudy
4:53 PM 82.0 °F - 60.1 °F 47% 29.87 in 10.0 mi West 16.1 mph - N/A   Scattered Clouds
5:53 PM 80.1 °F - 62.1 °F 54% 29.87 in 10.0 mi West 15.0 mph - N/A   Partly Cloudy
6:53 PM 79.0 °F - 62.1 °F 56% 29.87 in 10.0 mi West 11.5 mph - N/A   Partly Cloudy
7:53 PM 77.0 °F - 64.0 °F 64% 29.88 in 10.0 mi West 6.9 mph - N/A   Mostly Cloudy
8:53 PM 73.0 °F - 64.0 °F 73% 29.88 in 10.0 mi WSW 4.6 mph - N/A   Overcast
9:53 PM 73.9 °F - 64.0 °F 71% 29.90 in 10.0 mi West 5.8 mph - N/A   Overcast
10:53 PM 73.9 °F - 63.0 °F 68% 29.90 in 10.0 mi WNW 5.8 mph - N/A   Overcast
11:53 PM 72.0 °F - 63.0 °F 73% 29.91 in 10.0 mi WNW 5.8 mph - 0.00 in Rain Light Rain